CZ-6A DEB

Satellite information

Favourite Embed

Satellite Type and Status

DEBRISIN ORBIT

Key statistics

Satellite CZ-6A DEB at a glance.

Uptime

1128

Days in orbit

Revolutions

≈ 14.6

Per day

Orbit

SSO

Sun Synchronous Orbit

Inclination

98.6

Latest

Satellite identification and parameters

Extended collection of information and parameters for CZ-6A DEB.

Object identification

Identified? True

Debris? True

Object name: CZ-6A DEB

International designator: 2022-151PC

Object number (NORAD): 54626

Object ID (CCSDS): 54626

Country: PEOPLES REPUBLIC OF CHINA (PRC)

Current information (Y/N): Y

RCS size: SMALL

Orbital parameters

Period: 98.551 minutes

Inclination: 98.6267 deg

SMA: 7067.505 km

Apoapsis: 748.226 km

Periapsis: 630.515 km

RAAN: 30.6012 deg

Eccentricy: 0.00832766

Argument of periapsis: 161.5198 deg

Mean anomaly: 198.9058 deg

Mean motion: 14.61179386 rev/day

Mean motion (dot): 0.00018742 rev/day2

B* drag term: 0.0036249608 1/REarth

Two-line elements (TLE)

Creation date: Dec. 12, 2025, 10:14 a.m.

Reference frame: TEME

Reference center: EARTH

Epoch: Dec. 12, 2025, 1:42 a.m. UTC

TLE line 0: 0 CZ-6A DEB

TLE line 1: 1 54626U 22151PC 25346.07135807 .00018742 00000-0 36250-2 0 9995

TLE line 2: 2 54626 98.6267 30.6012 0083277 161.5198 198.9058 14.61179386161423

Live tracking on map

Real-time ground track for satellite CZ-6A DEB.

In-orbit conjunctions

A list of the most updated potential collisions computed for object CZ-6A DEB.

Target Orbit TCA Probability of collision Miss distance Type
DELTA 2 R/B(1) LEO 2025-02-22 08:05:26 0.0003764182 307.0 (m) ROCKET BODY
OSCAR 19 (LUSAT) SSO 2024-11-01 19:14:54 0.0001174392 933.0 (m) PAYLOAD

Associated space launch

Chinese satellite reported for atmospheric/ocean/environmental/spatial parameter research purposes, details TBD.

CZ-6A DEB was lifted into orbit during the mission ‘Long March 6A | Yunhai 3’, on board a Long March 6A space rocket.

The launch took place on Nov. 11, 2022, 10:52 p.m. from Launch Complex 9A.

For more information about the launch, click the button.

Launch to space Long March 6A | Yunhai 3
Long March 6A | Yunhai 3

Agency: N/A

Status: Launch Successful

Launch date: Nov. 11, 2022, 10:52 p.m. UTC

Rocket: Long March 6A

Launch pad: Launch Complex 9A

Location: Taiyuan Satellite Launch Center, People's Republic of China

...

Latest news about this satellite

There are no fresh news available about this satellite. Check back as we update our databases every day.


Newsletter sign-up

Weekly statistics, charts and insights to help you stay on top of the space industry.